www.pogodaiklimat.ru

ПОГОДА в Питт-Гринвилле, NC

  • Прогноз погоды в Питт-Гринвилле
  • Монитор погоды в Питт-Гринвилле
  • Климат в Питт-Гринвилле

АРХИВ ПОГОДЫ в Питт-Гринвилле

Время (UTC), дата Ветер
(напр.,м/с)
 
Видим.   Явления Облачность Т
(С)
Тd
(С)
f
(%)
Тe
(С)
Тes
(С)
Комфортность

P
(гПа)

Po
(гПа)
Тmin
(С)
Tmax
(С)
R
(мм)
SD
(см)
01:50 16.06 Ю  16 км    ясно  +22.0  +15.0  64  +25  +25  комфорт    1019.2         
02:10 16.06 Ю  16 км    ясно  +21.0  +15.0  69  +24  +24  комфорт    1019.6         
02:30 16.06 Ю  16 км    ясно  +21.0  +15.0  69  +24  +24  комфорт    1019.2         
02:50 16.06 Ю  16 км    ясно  +21.0  +15.0  69  +24  +24  комфорт    1019.2         
03:10 16.06 Ю  16 км    ясно  +20.0  +15.0  73  +22  +22  комфорт    1019.2         
03:30 16.06 Ю  16 км    ясно  +20.0  +15.0  73  +23  +23  комфорт    1018.9         
03:50 16.06 Ю  16 км    ясно  +20.0  +15.0  73  +22  +22  комфорт    1018.6         
04:10 16.06 ЮЗ  16 км    ясно  +20.0  +15.0  73  +22  +22  комфорт    1018.9         
04:30 16.06 ЮЗ  16 км    ясно  +20.0  +16.0  78  +23  +23  комфорт    1018.9         
04:50 16.06 ЮЗ  16 км    ясно  +19.0  +16.0  83  +21  +21  комфорт    1018.6         
05:10 16.06 ЮЗ  16 км    ясно  +19.0  +16.0  83  +21  +21  комфорт    1018.6         
05:30 16.06 ЮЗ  16 км    ясно  +18.0  +16.0  88  +19  +19      1018.6         
05:50 16.06 ЮЗ  16 км    ясно  +18.0  +16.0  88  +18  +18      1018.2         
06:10 16.06 ЮЗ  16 км    ясно  +18.0  +16.0  88  +18  +18      1017.9         
06:30 16.06 ЮЗ  16 км    ясно  +18.0  +16.0  88  +19  +19      1017.9         
06:50 16.06 Ю  16 км    ясно  +18.0  +16.0  88  +18  +18      1017.5         
07:10 16.06 Ю  16 км    ясно  +18.0  +16.0  88  +18  +18      1017.2         
07:30 16.06 ЮЗ  16 км    ясно  +18.0  +16.0  88  +18  +18      1017.2         
07:50 16.06 ЮЗ  16 км    ясно  +18.0  +16.0  88  +18  +18      1017.2         
08:10 16.06 ЮЗ  16 км    ясно  +18.0  +16.0  88  +18  +18      1016.9         
08:30 16.06 ЮЗ  16 км    ясно  +18.0  +16.0  88  +18  +18      1017.2         
08:50 16.06 ЮЗ  16 км    ясно  +18.0  +16.0  88  +18  +18      1017.2         
09:10 16.06 ЮЗ  16 км    ясно  +18.0  +17.0  94  +19  +19      1017.5         
09:30 16.06 ЮЗ  16 км    ясно  +18.0  +17.0  94  +18  +18      1017.5         
09:50 16.06 ЮЗ  16 км    ясно  +19.0  +17.0  88  +21  +21  комфорт    1017.5         
10:10 16.06 ЮЗ  16 км    ясно  +20.0  +17.0  83  +23  +24  комфорт    1017.5         
10:30 16.06 ЮЗ  16 км    ясно  +20.0  +18.0  88  +23  +24  комфорт    1017.5         
10:50 16.06 ЮЗ  16 км    ясно  +21.0  +18.0  83  +25  +26  комфорт    1017.5         
11:10 16.06 ЮЗ  16 км    ясно  +22.0  +18.0  78  +27  +29  душно    1017.9         
11:30 16.06 ЮЗ  16 км    ясно  +23.0  +19.0  78  +29  +31  очень
душно 
  1017.9         
11:50 16.06 ЮЗ  16 км    ясно  +24.0  +19.0  74  +29  +30  душно    1018.2         
12:10 16.06 ЮЗ  5
{7} 
16 км    ясно  +25.0  +20.0  74  +31  +33  очень
душно 
  1017.9         
12:30 16.06 ЮЗ  4
{8} 
16 км    ясно  +25.0  +20.0  74  +31  +34  очень
душно 
  1018.2         
12:50 16.06 ЮЗ  16 км    ясно  +26.0  +20.0  70  +32  +36  очень
душно 
  1018.2         
13:10 16.06 ЮЗ  16 км    ясно  +26.0  +20.0  70  +32  +38  очень
душно 
  1017.9         
13:30 16.06 ЮЗ  4
{7} 
16 км    ясно  +27.0  +20.0  66  +33  +39  очень
душно 
  1017.9         
13:50 16.06 ЮЗ  16 км    ясно  +27.0  +20.0  66  +33  +38  очень
душно 
  1018.2         
14:10 16.06 ЮЗ  16 км    5/5 810 м  +27.0  +20.0  66  +33  +36  очень
душно 
  1017.9         
14:30 16.06 ЮЗ  5
{8} 
16 км    5/5 870 м  +28.0  +20.0  62  +34  +37  очень
душно 
  1017.9         
14:50 16.06 З  6
{8} 
16 км    5/5 930 м  +28.0  +20.0  62  +34  +37  очень
душно 
  1017.5         
15:10 16.06 ЮЗ  4
{7} 
16 км    5/5 1080 м  +28.0  +20.0  62  +34  +39  очень
душно 
  1017.5         
15:30 16.06 З  5
{9} 
16 км    ясно  +30.0  +20.0  55  +36  +44  очень
душно 
  1017.5         
15:50 16.06 З  16 км    ясно  +30.0  +19.0  52  +35  +47  очень
душно 
  1017.5         
16:10 16.06 ЮЗ  6
{8} 
16 км    ясно  +30.0  +19.0  52  +35  +42  очень
душно 
  1017.2         
16:30 16.06 ЮЗ  6
{8} 
16 км    ясно  +30.0  +19.0  52  +35  +42  очень
душно 
  1016.9         
16:50 16.06 ЮЗ  6
{9} 
16 км    ясно  +30.0  +19.0  52  +35  +42  очень
душно 
  1016.5         
17:10 16.06 ЮЗ  16 км    ясно  +30.0  +19.0  52  +35  +47  очень
душно 
  1016.5         
17:30 16.06 ЮЗ  5
{7} 
16 км    ясно  +31.0  +18.0  46  +35  +43  очень
душно 
  1016.2         

 

Местоположение метеостанции Pitt-Greenville Airport: широта 35.6333 долгота -77.4000 высота над уровнем моря 8 м.

В архиве по умолчанию представлена погода в Питт-Гринвилле за последние 1-2 суток. Обновление информации о фактической погоде в базе происходит ежечасно! Архивные данные за месяц целиком и за предыдущие месяцы Вы можете получить, выбрав интересующий диапазон дат из раскрывающегося списка и нажав кнопку "Ввод!".

Внимание! Архив погоды МЕТАР в базе сайта хранится не более 60 дней. Нет смысла пытаться выбрать более раннюю дату.

Внимание! Время в таблицах - всемирное. Для получения местного времени необходимо прибавить поправку, которая в Питт-Гринвилле равна -5 ч.

Ветер - указаны скорость ветра в м/с и направление, откуда дует ветер: С - северный, СВ - северо-восточный, В - восточный, ЮВ - юго-восточный, Ю - южный, ЮЗ - юго-западный, З - западный, СЗ - северо-западный.
Видимость - горизонтальная дальность видимости в метрах или километрах. При видимости от 1 до 10 км при отсутствии осадков обычно наблюдается дымка, при ухудшении видимости до 1 км и менее - туман. В сухую погоду видимость может ухудшаться дымом, пылью или мглою.
Атмосферные явления - указаны явления, наблюдавшиеся в указанный момент времени.
Облачность - указаны через наклонную черту верхняя и нижняя облачность в баллах и высота нижней границы облаков в метрах. Внимание: облачность, как и прочие метеорологические величины в США измеряются автоматическими метеостанциями. Указанные значения в баллах носят условный характер и показывают процент времени, в течение которого, в среднем, лазерный луч высотомера отражался от облаков обратно.
T - Температура воздуха - температура, измеренная на высоте 2 м над землей.
Td - Температура точки росы - температура, при понижении до которой содержащийся в воздухе водяной пар достигнет насыщения.
f - Относительная влажность воздуха - влажноcть воздуха, измеренная на высоте 2 м над землей.
Te - Эффективная температура - температура, которую ощущает одетый по сезону человек в тени. Характеристика душности погоды. При расчете учитывается влияние влажности воздуха и скорости ветра на теплоощущения человека.
Tes - Эффективная температура на солнце - температура, которую ощущает человек, с поправкой на солнечный нагрев. Характеристика знойности погоды. Зависит от высоты солнца над горизонтом, облачности и скорости ветра. Ночью, в пасмурную погоду, а также при ветре 12 м/с и более поправка равна нулю.
P - Атмосферное давление - приведенное к уровню моря атмосферное давление.
Po - Атмосферное давление - измеренное на уровне метеостанции атмосферное давление.
Tmin - Минимальная температура - минимум температуры воздуха на высоте 2 м над землей.
Tmax - Максимальная температура - максимум температуры воздуха на высоте 2 м над землей.
R - Количество осадков - Количество выпавших осадков за 3 или 6 часов, мм.
SD - Снежный покров - Высота снежного покрова, см.